Current weather by "City, St" or "zip code"  
 

Current Conditions: Friday Harbor Airport, WA

Overcast


42.0 F

Last Updated on Oct 23 2020, 6:53 pm PDT
Humidity: 92%
Wind Speed: N 5.8 mph
Barometer 29.89 in
Dewpoint: 39.9 F
Visibility: 10.00 mi
Precip: 00.01 in
Heat Index: NA
Wind Chill: 38 F
Current conditions at:

Friday Harbor Airport, WA (KFHR)

Lat: 48.52 Lon: 123.02637

Local Radar Image active severe weather and emergency alerts image image weather storm and storm spotter reports image weather observation monitoring service image
Local
Radar
Active
Alerts
Storm Reports Obs
Monitoring

Sign-up For Email & Text Message Weather Alert Notification Services



Advertise Here

Observation History for Friday Harbor Airport, WA


Time Wind
(mph)
Vis
(mi)
Weather Precip (in) Temperature (F) Relative
Humidity
Wind
Chill
(F)
Heat
Index
(F)
Pressure
Air Dwpt altimeter
(in)
sea level
(mb)
Rmks
6:53 pm PDT N 5.8 10.00 Overcast 00.01 42.0 39.9 92% 38 NA 29.89 1012.3
5:53 pm PDT N 10.4 3.00 Light Rain Fog/Mist 00.03 42.0 41.0 96% 36 NA 29.87 1011.6
4:53 pm PDT N 8.1 3.00 Light Rain Fog/Mist 00.01 43.0 42.1 97% 38 NA 29.86 1011.2
3:53 pm PDT NE 9.2 3.00 Light Rain Fog/Mist 00.02 43.0 42.1 97% 38 NA 29.85 1010.9
2:53 pm PDT E 8.1 2.00 Light Rain Fog/Mist 00.04 44.0 43.0 96% 39 NA 29.84 1010.5
1:53 pm PDT E 9.2 1.50 Light Rain Fog/Mist 00.04 44.0 42.1 93% 39 NA 29.85 1010.8
12:53 pm PDT E 11.5 3.00 Light Rain Fog/Mist Trace 44.0 41.0 89% 38 NA 29.86 1011.3
11:53 am PDT E 10.4 6.00 Fog/Mist Trace 43.0 41.0 93% 37 NA 29.90 1012.4
10:53 am PDT E 12.7 G 23.0 3.00 Light Rain Fog/Mist 00.01 43.0 39.9 89% 36 NA 29.93 1013.7
9:53 am PDT E 15.0 4.00 Fog/Mist Trace 43.0 39.9 89% 36 NA 29.97 1014.7
8:53 am PDT E 9.2 5.00 Light Rain Fog/Mist 00.03 43.0 39.9 89% 38 NA 30.00 1016.1
7:53 am PDT NE 4.6 7.00 Light Rain 00.09 42.0 39.9 92% 39 NA 30.05 1017.6
6:53 am PDT NE 3.5 9.00 Light Rain 00.01 43.0 39.0 86% NA NA 30.08 1018.6
5:53 am PDT E 4.6 10.00 Overcast Trace 43.0 39.0 86% 40 NA 30.11 1019.7
4:53 am PDT E 5.8 10.00 Overcast Trace 44.0 37.9 79% 41 NA 30.15 1021.0
3:53 am PDT SE 3.5 10.00 Overcast -- 44.0 39.0 83% NA NA 30.19 1022.3
2:53 am PDT N 0.0 10.00 Overcast -- 44.0 39.9 85% NA NA 30.23 1023.7
1:53 am PDT N 0.0 10.00 Mostly Cloudy -- 43.0 39.9 89% NA NA 30.27 1025.0
12:53 am PDT N 0.0 10.00 Overcast -- 42.0 41.0 96% NA NA 30.31 1026.4
11:53 pm PDT N 0.0 10.00 Mostly Cloudy -- 40.0 39.9 100% NA NA 30.33 1027.2
10:53 pm PDT N 0.0 10.00 Fair -- 37.0 37.0 100% NA NA 30.34 1027.2
9:53 pm PDT W 3.5 10.00 Fair -- 38.0 37.9 100% NA NA 30.35 1027.7
8:53 pm PDT N 0.0 10.00 Fair -- 37.0 37.0 100% NA NA 30.36 1028.1
7:53 pm PDT N 0.0 10.00 Fair -- 39.0 37.9 96% NA NA 30.37 1028.7

Regional Weather Observation


Eastsound, Orcas Island Airport, WA (KORS)

Light Rain
45.0 F

Bellingham, Bellingham International Airport, WA (KBLI)

Overcast
42.0 F

Port Angeles Fairchild International Airport, WA (KCLM)

Light Rain Fog/Mist
43.0 F

Whidbey Island Naval Air Station - Ault Field, WA (KNUW)

Light Rain
44.0 F

Burlington/Mount Vernon, Skagit Regional Airport, WA (KBVS)

Overcast
41.0 F

Arlington Municipal Airport, WA (KAWO)

Light Rain
40.0 F